• In Italy
  • List of Countries
  • For 7 days
  • Water Temperature
  • Satellite Maps
  • Weather Map
  • Weather Widgets
  • user-avatar
    Login

    Hourly Weather Kalgoorlie

    Today, 11 December, Monday

    Time Temperature Precipitation Wind Pressure Humidity
    00:00 +29°C° 0 mm 4 mps 728 mmHg 29%
    01:00 +28°C° 0 mm 4 mps 728 mmHg 29%
    02:00 +27°C° 0 mm 3 mps 728 mmHg 29%
    03:00 +27°C° 0 mm 3 mps 728 mmHg 31%
    04:00 +27°C° 0 mm 3 mps 728 mmHg 33%
    05:00 +26°C° 0 mm 3 mps 728 mmHg 35%
    06:00 +28°C° 0 mm 4 mps 728 mmHg 35%
    07:00 +30°C° 0 mm 5 mps 728 mmHg 35%
    08:00 +32°C° 0 mm 4 mps 729 mmHg 33%
    09:00 +34°C° 0 mm 5 mps 728 mmHg 31%
    10:00 +35°C° 0 mm 5 mps 728 mmHg 28%
    11:00 +37°C° 0 mm 5 mps 727 mmHg 26%
    12:00 +39°C° 0 mm 5 mps 727 mmHg 23%
    13:00 +40°C° 0 mm 5 mps 726 mmHg 21%
    14:00 +41°C° 0 mm 4 mps 725 mmHg 20%
    15:00 +41°C° 0 mm 4 mps 725 mmHg 19%
    16:00 +41°C° 0 mm 4 mps 725 mmHg 19%
    17:00 +41°C° 0 mm 5 mps 725 mmHg 18%
    18:00 +40°C° 0 mm 4 mps 725 mmHg 20%
    19:00 +38°C° 0 mm 4 mps 724 mmHg 21%
    20:00 +37°C° 0 mm 4 mps 724 mmHg 23%
    21:00 +37°C° 0 mm 4 mps 724 mmHg 25%
    22:00 +36°C° 0 mm 4 mps 724 mmHg 26%
    23:00 +35°C° 0 mm 5 mps 724 mmHg 27%

    Tomorrow, 12 December, Tuesday

    Time Temperature Precipitation Wind Pressure Humidity
    00:00 +35°C° 0 mm 4 mps 724 mmHg 29%
    01:00 +34°C° 0 mm 4 mps 723 mmHg 30%
    02:00 +33°C° 0 mm 4 mps 723 mmHg 32%
    03:00 +33°C° 0 mm 4 mps 723 mmHg 32%
    04:00 +32°C° 0 mm 4 mps 724 mmHg 32%
    05:00 +32°C° 0 mm 4 mps 724 mmHg 32%
    06:00 +33°C° 0 mm 4 mps 724 mmHg 30%
    07:00 +33°C° 0 mm 5 mps 724 mmHg 29%
    08:00 +34°C° 0 mm 5 mps 725 mmHg 27%
    09:00 +36°C° 0 mm 6 mps 725 mmHg 23%
    10:00 +38°C° 0 mm 8 mps 725 mmHg 18%
    11:00 +40°C° 0 mm 9 mps 725 mmHg 14%
    12:00 +42°C° 0 mm 9 mps 724 mmHg 14%
    13:00 +42°C° 0 mm 9 mps 724 mmHg 13%
    14:00 +43°C° 0 mm 9 mps 723 mmHg 12%
    15:00 +40°C° 0 mm 9 mps 723 mmHg 16%
    16:00 +39°C° 0 mm 9 mps 723 mmHg 20%
    17:00 +37°C° 0 mm 8 mps 723 mmHg 24%
    18:00 +34°C° 0 mm 8 mps 723 mmHg 29%
    19:00 +33°C° 0 mm 9 mps 724 mmHg 34%
    20:00 +31°C° 0 mm 9 mps 724 mmHg 39%
    21:00 +28°C° 0 mm 9 mps 725 mmHg 44%
    22:00 +26°C° 0 mm 9 mps 726 mmHg 49%
    23:00 +23°C° 0 mm 9 mps 726 mmHg 53%

    Day after tomorrow, 13 December, Wednesday

    Time Temperature Precipitation Wind Pressure Humidity
    00:00 +22°C° 0 mm 8 mps 726 mmHg 53%
    01:00 +21°C° 0 mm 8 mps 726 mmHg 53%
    02:00 +21°C° 0 mm 7 mps 726 mmHg 53%
    03:00 +20°C° 0 mm 6 mps 726 mmHg 53%
    04:00 +20°C° 0 mm 6 mps 727 mmHg 54%
    05:00 +19°C° 0 mm 5 mps 727 mmHg 54%
    06:00 +20°C° 0 mm 6 mps 728 mmHg 51%
    07:00 +22°C° 0 mm 6 mps 728 mmHg 47%
    08:00 +23°C° 0 mm 6 mps 728 mmHg 43%
    09:00 +26°C° 0 mm 6 mps 729 mmHg 39%
    10:00 +27°C° 0 mm 5 mps 729 mmHg 36%
    11:00 +29°C° 0 mm 5 mps 729 mmHg 32%
    12:00 +30°C° 0 mm 5 mps 728 mmHg 32%
    13:00 +30°C° 0 mm 5 mps 728 mmHg 31%
    14:00 +32°C° 0 mm 5 mps 727 mmHg 31%
    15:00 +32°C° 0 mm 5 mps 727 mmHg 31%
    16:00 +32°C° 0 mm 6 mps 727 mmHg 30%
    17:00 +32°C° 0 mm 6 mps 727 mmHg 30%
    18:00 +30°C° 0 mm 6 mps 727 mmHg 30%
    19:00 +29°C° 0 mm 5 mps 728 mmHg 30%
    20:00 +28°C° 0 mm 5 mps 728 mmHg 29%
    21:00 +27°C° 0 mm 6 mps 729 mmHg 33%
    22:00 +24°C° 0 mm 7 mps 729 mmHg 36%
    23:00 +23°C° 0 mm 9 mps 730 mmHg 39%

    14 December, Thursday

    Time Temperature Precipitation Wind Pressure Humidity
    00:00 +22°C° 0 mm 8 mps 730 mmHg 45%
    01:00 +20°C° 0 mm 8 mps 730 mmHg 51%
    02:00 +18°C° 0 mm 7 mps 729 mmHg 57%
    03:00 +18°C° 0 mm 7 mps 730 mmHg 58%
    04:00 +17°C° 0 mm 6 mps 730 mmHg 60%
    05:00 +17°C° 0 mm 5 mps 730 mmHg 62%
    06:00 +19°C° 0 mm 5 mps 730 mmHg 58%
    07:00 +20°C° 0 mm 5 mps 731 mmHg 54%
    08:00 +21°C° 0 mm 5 mps 731 mmHg 50%
    09:00 +23°C° 0 mm 4 mps 731 mmHg 45%
    10:00 +26°C° 0 mm 3 mps 731 mmHg 40%
    11:00 +28°C° 0 mm 3 mps 730 mmHg 34%
    12:00 +29°C° 0 mm 2 mps 730 mmHg 31%
    13:00 +30°C° 0 mm 1 mps 729 mmHg 27%
    14:00 +30°C° 0 mm 0 mps 729 mmHg 24%
    15:00 +32°C° 0 mm 1 mps 728 mmHg 23%
    16:00 +32°C° 0 mm 1 mps 728 mmHg 22%
    17:00 +33°C° 0 mm 1 mps 728 mmHg 20%
    18:00 +32°C° 0 mm 2 mps 728 mmHg 21%
    19:00 +31°C° 0 mm 2 mps 728 mmHg 21%
    20:00 +31°C° 0 mm 3 mps 728 mmHg 22%
    21:00 +30°C° 0 mm 4 mps 728 mmHg 23%
    22:00 +29°C° 0 mm 5 mps 729 mmHg 24%
    23:00 +29°C° 0 mm 5 mps 729 mmHg 24%

    15 December, Friday

    Time Temperature Precipitation Wind Pressure Humidity
    00:00 +27°C° 0 mm 6 mps 728 mmHg 29%
    01:00 +26°C° 0 mm 7 mps 728 mmHg 33%
    02:00 +23°C° 0 mm 7 mps 727 mmHg 37%
    03:00 +23°C° 0 mm 7 mps 728 mmHg 40%
    04:00 +22°C° 0 mm 6 mps 728 mmHg 42%
    05:00 +22°C° 0 mm 6 mps 728 mmHg 44%
    06:00 +24°C° 0 mm 6 mps 729 mmHg 41%
    07:00 +26°C° 0 mm 6 mps 729 mmHg 37%
    08:00 +28°C° 0 mm 6 mps 729 mmHg 33%
    09:00 +30°C° 0 mm 5 mps 729 mmHg 30%
    10:00 +33°C° 0 mm 5 mps 728 mmHg 26%
    11:00 +35°C° 0 mm 4 mps 728 mmHg 23%
    12:00 +36°C° 0 mm 3 mps 727 mmHg 21%
    13:00 +37°C° 0 mm 3 mps 726 mmHg 20%
    14:00 +38°C° 0 mm 2 mps 726 mmHg 18%
    15:00 +37°C° 0 mm 1 mps 725 mmHg 18%
    16:00 +37°C° 0 mm 1 mps 725 mmHg 18%
    17:00 +37°C° 0 mm 1 mps 725 mmHg 18%
    18:00 +36°C° 0 mm 1 mps 725 mmHg 19%
    19:00 +37°C° 0 mm 2 mps 725 mmHg 20%
    20:00 +36°C° 0 mm 3 mps 725 mmHg 21%
    21:00 +35°C° 0.1 mm 4 mps 725 mmHg 22%
    22:00 +34°C° 0.1 mm 5 mps 725 mmHg 24%
    23:00 +33°C° 0.1 mm 5 mps 725 mmHg 25%

    16 December, Saturday

    Time Temperature Precipitation Wind Pressure Humidity
    00:00 +33°C° 0 mm 6 mps 725 mmHg 25%
    01:00 +32°C° 0 mm 7 mps 724 mmHg 24%
    02:00 +31°C° 0 mm 8 mps 724 mmHg 24%
    03:00 +31°C° 0 mm 8 mps 724 mmHg 23%
    04:00 +29°C° 0 mm 8 mps 724 mmHg 23%
    05:00 +29°C° 0 mm 7 mps 724 mmHg 22%
    06:00 +32°C° 0 mm 9 mps 723 mmHg 20%
    07:00 +33°C° 0 mm 11 mps 723 mmHg 18%
    08:00 +36°C° 0 mm 13 mps 723 mmHg 16%
    09:00 +39°C° 0 mm 13 mps 723 mmHg 14%
    10:00 +42°C° 0 mm 14 mps 722 mmHg 13%
    11:00 +46°C° 0 mm 14 mps 721 mmHg 11%
    12:00 +46°C° 0 mm 15 mps 720 mmHg 10%
    13:00 +47°C° 0 mm 15 mps 719 mmHg 9%
    14:00 +47°C° 0 mm 16 mps 718 mmHg 8%
    15:00 +46°C° 0 mm 15 mps 718 mmHg 8%
    16:00 +45°C° 0 mm 14 mps 718 mmHg 9%
    17:00 +45°C° 0 mm 13 mps 718 mmHg 9%
    18:00 +42°C° 0 mm 12 mps 718 mmHg 10%
    19:00 +39°C° 0 mm 10 mps 718 mmHg 12%
    20:00 +38°C° 0 mm 9 mps 718 mmHg 13%
    21:00 +36°C° 0 mm 10 mps 719 mmHg 16%
    22:00 +33°C° 0 mm 11 mps 719 mmHg 19%
    23:00 +31°C° 0 mm 12 mps 719 mmHg 22%
    Show more